This is the latest recevied weather packets stored in our database for station/object 9W3FAB-1. If no packets are shown the sender has not sent any weather packets the latest 10 day(s).
| Time | Temp. | Humidity | Pressure | Rain* | Wind** | Luminosity | Snow |
|---|---|---|---|---|---|---|---|
| 1778121102 | 29.44° C | 100% | 1008.2 hPa | - | - | - | - |
| 1778120201 | 28.89° C | 100% | 1008.3 hPa | - | - | - | - |
| 1778119300 | 28.89° C | 100% | 1008.3 hPa | - | - | - | - |
| 1778118399 | 28.89° C | 100% | 1008.4 hPa | - | - | - | - |
| 1778117498 | 28.33° C | 100% | 1008.4 hPa | - | - | - | - |
| 1778116597 | 28.33° C | 100% | 1008.5 hPa | - | - | - | - |
| 1778115696 | 28.33° C | 100% | 1008.5 hPa | - | - | - | - |
| 1778114795 | 27.78° C | 100% | 1008.5 hPa | - | - | - | - |
| 1778113895 | 27.78° C | 100% | 1008.3 hPa | - | - | - | - |
| 1778112994 | 27.78° C | 100% | 1008 hPa | - | - | - | - |
| 1778112092 | 27.78° C | 100% | 1007.7 hPa | - | - | - | - |
| 1778111281 | 27.78° C | 100% | 1007.4 hPa | - | - | - | - |
| 1778110374 | 27.78° C | 100% | 1007 hPa | - | - | - | - |
| 1778109473 | 27.78° C | 100% | 1007 hPa | - | - | - | - |
| 1778108572 | 27.78° C | 100% | 1006.8 hPa | - | - | - | - |
| 1778107671 | 27.78° C | 100% | 1006.8 hPa | - | - | - | - |
| 1778106770 | 27.78° C | 100% | 1006.7 hPa | - | - | - | - |
| 1778105869 | 27.22° C | 100% | 1006.5 hPa | - | - | - | - |
| 1778104968 | 26.67° C | 100% | 1006.8 hPa | - | - | - | - |
| 1778104066 | 27.22° C | 100% | 1006.7 hPa | - | - | - | - |
| 1778103165 | 27.78° C | 100% | 1006.9 hPa | - | - | - | - |
| 1778102264 | 26.11° C | 100% | 1006.9 hPa | - | - | - | - |
| 1778101363 | 26.67° C | 100% | 1006.8 hPa | - | - | - | - |
| 1778100462 | 27.78° C | 100% | 1006.7 hPa | - | - | - | - |
| 1778099562 | 27.22° C | 100% | 1006.8 hPa | - | - | - | - |
* Rain since midnight (hover to see other rain measurements)
** Current wind speed in m/s (hover to see current wind gust speed)